Regional Weather Roundup
Issued by NWS

Home | Current Version | Previous Version | Graphics & Text | Print | Product List | Glossary On
Versions: 1 2 3 4 5 6 7 8 9 10 11 12 13 14 15 16 17 18 19 20 21 22 23 24 25 26 27 28 29 30 31 32 33 34 35 36 37 38 39 40 41 42 43 44 45 46 47 48 49 50
000
ASUS43 KFSD 220810
RWRSD

WEATHER ROUNDUP FOR SOUTH DAKOTA
NATIONAL WEATHER SERVICE SIOUX FALLS SD
200 AM CST MON JAN 22 2018

NOTE: "FAIR" INDICATES FEW OR NO CLOUDS BELOW 12,000 FEET WITH NO
SIGNIFICANT WEATHER AND/OR OBSTRUCTIONS TO VISIBILITY.


SDZ001>005-009-010-012>017-220900-
NORTHWEST AND NORTH CENTRAL SOUTH DAKOTA

CITY           SKY/WX    TMP DP  RH WIND       PRES   REMARKS
BUFFALO          N/A     18  12  77 W6        29.92S WCI  10
FAITH            N/A     21  19  92 NW10      29.96F WCI  10
MOBRIDGE       FOG       22  20  92 CALM      29.96F VSB 1/4
$$

SDZ012>016-024>037-041>051-057-063-072>074-220900-
SOUTHWEST AND SOUTH CENTRAL SOUTH DAKOTA

CITY           SKY/WX    TMP DP  RH WIND       PRES   REMARKS
RAPID CTY ARPT PTCLDY    28  19  69 NW21      29.95F WCI  15
PIERRE         CLOUDY    24  24 100 N3        29.95S
CUSTER         PTCLDY    22  12  65 N9        29.89F WCI  12
ELLSWORTH AFB  PTCLDY    29  20  67 NW18      29.95F WCI  17
PHILIP         MOCLDY    27  24  89 NW14      29.95F WCI  16
PINE RIDGE     MOCLDY    22  20  92 W3        29.94F
SPEARFISH        N/A     21  14  73 SW6       29.98F WCI  14
WINNER         CLOUDY    29  26  89 N18       29.90F FOG     WCI  16
$$

SDZ004>011-016>023-039-040-220900-
NORTHEAST SOUTH DAKOTA

CITY           SKY/WX    TMP DP  RH WIND       PRES   REMARKS
ABERDEEN       CLOUDY    24  23  96 N15       29.98F WCI  11
WATERTOWN      FOG       22  22 100 N20       29.90S VSB 3/4 WCI   7
BROOKINGS      FLURRIES  27  25  92 N16       29.86S WCI  15
SISSETON         N/A     23  22  96 N16       29.98F WCI  10
$$

SDZ017-020-022-023-036>040-048>070-220900-
SOUTHEAST SOUTH DAKOTA

CITY           SKY/WX    TMP DP  RH WIND       PRES   REMARKS
SIOUX FALLS    LGT SNOW  30  29  96 N24G31    29.78F FOG     WCI  16
HURON          CLOUDY    25  23  92 N14       29.93R WCI  13
CHAMBERLAIN    CLOUDY    28  28  98 N14       29.91F WCI  17
MITCHELL       LGT SNOW  29  27  92 N16       29.89R FOG     WCI  17
YANKTON        LGT RAIN  33  31  92 N23G30    29.75F WCI  21
$$

ABBREVIATIONS USED IN REMARKS
   TC - TEMPERATURE IN CELSIUS
  WCI - WIND CHILL INDEX
   HX - HEAT INDEX
  VSB - VISIBILITY




USA.gov is the U.S. government's official web portal to all federal, state and local government web resources and services.